Other Public Products
Issued by NWS Grand Forks, ND

Home | Current Version | Previous Version | Text Only | Print | Product List | Glossary Off
Versions: 1 2 3 4 5 6 7 8 9 10 11 12 13 14 15 16 17 18 19 20 21 22 23 24 25 26 27 28 29 30 31 32 33 34 35 36 37 38 39 40 41 42 43 44 45 46 47 48 49 50

000
FPUS83 KFGF 162231
OPUFGF
PRAIRIE TO PINES WEATHER ROUNDUP
NATIONAL WEATHER SERVICE EASTERN NORTH DAKOTA/GRAND FORKS ND
500 PM CDT WED APR 16 2014

 **SATELLITE DATA USED TO AUGMENT SKY COVER AT AUTOMATED STATIONS**
 *****  WEATHER ACROSS EASTERN NORTH DAKOTA  *****

CITY           SKY/WX    TMP DP  RH WIND       PRES   REMARKS
GRAND FORKS    MOSUNNY   41  15  35 NE22G29   30.14R
GRAND FORKS AF SUNNY     40  11  30 NE21      30.18R
GRAND CITY NWS   N/A     39 N/A N/A NE24        N/A
BUXTON           N/A     42  17  37 N14         N/A
DEVILS LAKE    SUNNY     37  10  32 NE18G25   30.19R
FARGO          CLOUDY    37  24  59 NE16      30.12R
WAHPETON ARPT  CLOUDY    34  21  60 NE17      30.09R WCI  23
$$

 *****  WEATHER ACROSS CENTRAL AND WESTERN NORTH DAKOTA  *****

CITY           SKY/WX    TMP DP  RH WIND       PRES   REMARKS
JAMESTOWN      PTSUNNY   39  18  42 NE16G25   30.12R
BISMARCK       CLOUDY    36  17  46 NE15G21   30.16R
MINOT          CLOUDY    33  19  56 NE12      30.21R WCI  24
MINOT AFB      CLOUDY    33  19  57 NE10      30.21S WCI  25
GARRISON         N/A     30  20  66 NE8       30.19R WCI  22
WILLISTON      CLOUDY    29  23  78 E14       30.21R WCI  18
DICKINSON      CLOUDY    29  21  72 NE9       30.11R WCI  20
HETTINGER      CLOUDY    32  22  66 NE10      30.10R WCI  24
$$

 *****  OTHER OBSERVATIONS NORTHEAST NORTH DAKOTA  *****

CITY           SKY/WX    TMP DP  RH WIND       PRES   REMARKS
WALHALLA         N/A     36   9  32 NE18      30.27R
LANGDON        FAIR      34  10  37 NE14G24   30.22R WCI  24
CAVALIER       FAIR      36  14  41 NE17G23   30.25R
GRAFTON        FAIR      37  10  32 NE16G23   30.22S
CANDO          CLOUDY    36  10  35 NE16G22   30.23R
FORT TOTTEN    NOT AVBL
ROLLA          FAIR      30  10  43 NE16G24   30.25R WCI  19
RUGBY          FAIR      34  16  47 NE13G24   30.21R WCI  25
 ***** THE ABOVE OBSERVATIONS ARE NON NWS ARE NOT QUALITY
        CONTROLLED AND MAY MIS-REPORT RAIN FOR SNOW...
$$

 *****  OTHER OBSERVATIONS SOUTHEAST NORTH DAKOTA *****

CITY           SKY/WX    TMP DP  RH WIND       PRES   REMARKS
COOPERSTOWN    FAIR      37  16  41 NE21G26   30.14R
VALLEY CITY    NOT AVBL
OAKES          MOCLDY    36  23  60 NE24      30.10R
GWINNER        CLOUDY    36  25  64 NE18G25   30.10R
BUFFALO          N/A     38  14  38 NE17        N/A
WYNDMERE       NOT AVBL
 ***** THE ABOVE OBSERVATIONS ARE NON NWS ARE NOT QUALITY
       CONTROLLED AND MAY MIS-REPORT RAIN FOR SNOW...
$$

  *****  WEATHER ACROSS NORTHERN MINNESOTA  *****

CITY           SKY/WX    TMP DP  RH WIND       PRES   REMARKS
FLAG ISLAND    SUNNY     32   9  37 N12       30.24R WCI  23
WARROAD        SUNNY     36  10  35 NE12      30.24R
ROSEAU         SUNNY     36   3  25 E15       30.23R
HALLOCK        CLOUDY    39   3  22 NE14      30.23R
THF RVR FALLS  SUNNY     39   7  26 NE17      30.17R
HALSTAD          N/A     41  18  38 NE13        N/A
FOSSTON        PTSUNNY   41  12  30 NE10      30.13R
BAUDETTE       SUNNY     37   4  25 E12G20    30.20R
WASKISH        MOSUNNY   39   9  28 NE13      30.16R
CROOKSTON      SUNNY     41  12  30 NE14G25   30.17R
$$
  *****  WEATHER ACROSS CENTRAL AND WEST MINNESOTA  *****

CITY           SKY/WX    TMP DP  RH WIND       PRES   REMARKS
BEMIDJI        CLOUDY    36  15  42 E16       30.12R
PARK RAPIDS    CLOUDY    30  21  69 NE14G23   30.08R WCI  19
WADENA         FLURRIES  28  21  74 NE14G24   30.06R WCI  17
DETROIT LAKES  CLOUDY    34  23  64 E12       30.10R
MOORHEAD       CLOUDY    37  27  65 NE16      30.12R
FERGUS FALLS   CLOUDY    32  19  59 NE18G25   30.06R WCI  20
ELBOW LAKE     CLOUDY    31  24  75 NE17G24   30.04R WCI  19
MORRIS MN      CLOUDY    32  27  80 NE20G31   30.00R WCI  20
STAPLES        LGT SNOW  28  25  86 NE9G18    30.05R WCI  20
WHEATON        CLOUDY    36  28  75 N18G26    30.08R
$$
  *****  WEATHER ELSEWHERE ACROSS MINNESOTA  *****

CITY           SKY/WX    TMP DP  RH WIND       PRES   REMARKS
DULUTH         SNOW      26  22  84 E22G31    30.10R VSB 1/2 WCI  12
INTRNTL FALLS  PTSUNNY   36   3  25 E14       30.19S
ELY            LGT SNOW  25  19  80 E9        30.20R WCI  15
CLOQUET        SNOW      27  25  93 E17G26    30.09R VSB 1/2 WCI  14
BRAINERD       LGT SNOW  32  24  72 NE14G23   30.05R VSB 1   WCI  22
HIBBING        LGT SNOW  28  22  78 NE14G20   30.14R VSB 1   WCI  17
ALEXANDRIA     LGT SNOW  29  25  85 NE14G26   30.00R FOG     WCI  18
SAINT CLOUD    SNOW      29  26  89 NE14G24   29.96R VSB 1/4 WCI  18
MINNEAPOLIS    LGT SNOW  32  32 100 N15       29.89S FOG     WCI  22
$$

  *****  WEATHER ACROSS SOUTH DAKOTA  *****

CITY           SKY/WX    TMP DP  RH WIND       PRES   REMARKS
SIOUX FALLS    LGT SNOW  31  29  92 N21G35    29.85R FOG     WCI  18
BROOKINGS      NOT AVBL
WATERTOWN      CLOUDY    28  24  85 NE28G33   29.96R FOG     WCI  13
HURON          CLOUDY    32  26  78 N16G28    30.01R WCI  21
SISSETON         N/A     32  25  75 NE20      30.04R WCI  20
ABERDEEN       CLOUDY    32  24  72 N23G29    30.08R WCI  19
MITCHELL       CLOUDY    36  27  69 N28G35    29.97R
PIERRE         CLOUDY    36  26  67 NE17G24   30.06R
MOBRIDGE       MOSUNNY   39  22  50 N16       30.07R
RAPID CITY     CLOUDY    45  26  47 N17       30.01R
$$

  *****  SOME WEATHER IN NEARBY STATES *****

CITY           SKY/WX    TMP DP  RH WIND       PRES   REMARKS
GLASGOW MT     CLOUDY    36  20  52 SE10      30.13R
GREAT FALLS MT LGT RAIN  39  35  86 SW15      29.98R
CHEYENNE WY    MOSUNNY   41  25  53 N18G25    29.94F
SCOTTSBLUFF NE PTSUNNY   53  20  27 N17G29    29.95S
OMAHA NE       PTSUNNY   59  34  39 NW29G41   29.73R
DES MOINES IA  CLOUDY    63  31  30 SW30G37   29.78F
DAVENPORT IA   PTSUNNY   56  26  31 S28G37    29.98F
CHICAGO IL     PTSUNNY   52  24  33 SE22G30   30.14F
EAU CLAIRE WI  CLOUDY    44  30  57 E21       29.89F
LA CROSSE WI   CLOUDY    54  28  36 S10       29.90R
$$

  *****  SOME NATIONAL WEATHER *****

CITY           SKY/WX    TMP DP  RH WIND       PRES   REMARKS
LA GUARDIA NY  SUNNY     47  17  30 N8        30.43R
RALEIGH NC     SUNNY     54  25  32 E7        30.36R
ATLANTA GA     SUNNY     60  29  30 E7        30.21F
NEW ORLEANS LA MOSUNNY   63  39  41 NE12      30.13S
OKLAHOMA CITY  MOSUNNY   69  29  22 S24G30    29.88F
ALBUQUERQUE NM CLOUDY    73   6   7 N5        29.79F
SALT LAKE CITY PTSUNNY   56   4  12 NW13G20   30.00S
LOS ANGELES CA SUNNY     65  52  62 W14       29.83S
BOISE ID       SUNNY     59  16  18 NW8       30.01F
SEATTLE WA     LGT RAIN  52  48  87 S14       30.05F
$$

*** WEATHER ACROSS MANITOBA...SASKATCHEWAN AND ONTARIO ***
                ***ONTARIO***

CITY           SKY/WX    TMP DP  RH WIND       PRES   REMARKS
GERALDTON      MOSUNNY   30   0  27 NW5       30.27R
THUNDER BAY    CLOUDY    30  16  55 E14       30.30R WCI  20
SIOUX LOOKOUT  MOSUNNY   30  -6  21 N5        30.25S
TORONTO        PTSUNNY   37  23  56 SE10      30.47R
BIG TROUT LK   SUNNY     16   0  48 NW13      30.32R WCI   2
PICKLE LAKE    MOSUNNY   27   1  33 NW6       30.27R WCI  20
DRYDEN         SUNNY     32   0  25 NE10      30.23S WCI  24
KENORA         MOSUNNY   32   5  32 NE9       30.24S WCI  24
$$
                *** MANITOBA***

CITY           SKY/WX    TMP DP  RH WIND       PRES   REMARKS
BRANDON        MOSUNNY   28   9  43 NE15      30.32S WCI  17
DAUPHIN        SUNNY     28   7  40 NE9       30.37S WCI  20
ISLAND LAKE    MOSUNNY   25   7  46 N8        30.37R WCI  16
PILOT MOUND      N/A     28   5  37 NE16G23     N/A  WCI  17
THE PAS        SUNNY     27   3  36 N2        30.42S
THOMPSON       SUNNY     25   7  46 NW9       30.39F WCI  15
WINNIPEG       MOSUNNY   32   9  37 NE18G24   30.33R WCI  20
LYNN LAKE      SUNNY     23  -2  33 W8        30.39F WCI  14
CHURCHILL      PTSUNNY   18   5  57 NW17      30.28S WCI   2
GILLAM         PTSUNNY   21   5  49 W13       30.36S WCI   9
$$
                ***SASKATCHEWAN***

CITY           SKY/WX    TMP DP  RH WIND       PRES   REMARKS
ESTEVAN        LGT SNOW  28  21  74 SE14      30.25S WCI  17
KINDERSLEY     CLOUDY    28  23  80 E20       30.15S WCI  15
LLOYDMINSTER   FLURRIES  28  19  69 SE16      30.19S WCI  17
PRINCE ALBERT  MOSUNNY   28   5  37 E13       30.34F WCI  18
REGINA         FLURRIES  30  18  59 SE10G17   30.25S WCI  21
YORKTON        SUNNY     30   7  37 VRB8      30.31S WCI  23



USA.gov is the U.S. government's official web portal to all federal, state and local government web resources and services.